| time (UTC) | temp C | wind direction | speed KPH | gust KPH | rain 1hr cm | rain 24hr cm | rain mn cm | humidity % | barometer mb |
| 20260507153051 | 14 | 200 | 6.4 | 14.5 | 0.00 | 0.00 | 0.00 | 53 | 1013.9 |
| 20260507151553 | 15 | 200 | 4.8 | 12.9 | 0.00 | 0.00 | 0.00 | 53 | 1014.0 |
| 20260507150053 | 15 | 184 | 6.4 | 17.7 | 0.00 | 0.00 | 0.00 | 53 | 1014.0 |
| 20260507144551 | 15 | 176 | 6.4 | 17.7 | 0.00 | 0.00 | 0.00 | 52 | 1014.0 |
| 20260507143051 | 15 | 174 | 1.6 | 11.3 | 0.00 | 0.00 | 0.00 | 52 | 1014.0 |
| 20260507141553 | 15 | 174 | 6.4 | 22.5 | 0.00 | 0.00 | 0.00 | 52 | 1014.1 |
| 20260507140053 | 15 | 160 | 4.8 | 17.7 | 0.00 | 0.00 | 0.00 | 50 | 1014.3 |
| 20260507134551 | 15 | 146 | 6.4 | 17.7 | 0.00 | 0.00 | 0.00 | 48 | 1014.2 |
| 20260507133051 | 16 | 156 | 8.0 | 17.7 | 0.00 | 0.00 | 0.00 | 48 | 1014.3 |
| 20260507131553 | 16 | 174 | 9.7 | 22.5 | 0.00 | 0.00 | 0.00 | 45 | 1014.3 |
| 20260507130053 | 16 | 171 | 8.0 | 19.3 | 0.00 | 0.00 | 0.00 | 46 | 1014.4 |
| 20260507124552 | 16 | 158 | 6.4 | 19.3 | 0.00 | 0.00 | 0.00 | 46 | 1014.5 |
| 20260507123052 | 16 | 136 | 6.4 | 19.3 | 0.00 | 0.00 | 0.00 | 44 | 1014.5 |
| 20260507121552 | 16 | 190 | 4.8 | 19.3 | 0.00 | 0.00 | 0.00 | 47 | 1014.5 |
| 20260507120052 | 16 | 154 | 6.4 | 19.3 | 0.00 | 0.00 | 0.00 | 50 | 1014.6 |
| 20260507114551 | 16 | 192 | 4.8 | 17.7 | 0.00 | 0.00 | 0.00 | 50 | 1014.7 |
| 20260507113051 | 15 | 175 | 8.0 | 17.7 | 0.00 | 0.00 | 0.00 | 49 | 1015.1 |
| 20260507111551 | 15 | 162 | 3.2 | 14.5 | 0.00 | 0.00 | 0.00 | 56 | 1014.9 |
| 20260507110053 | 13 | 116 | 4.8 | 19.3 | 0.00 | 0.00 | 0.00 | 61 | 1015.1 |
| 20260507104548 | 13 | 109 | 4.8 | 14.5 | 0.00 | 0.00 | 0.00 | 64 | 1015.2 |
| 20260507103048 | 12 | 117 | 6.4 | 14.5 | 0.00 | 0.00 | 0.00 | 69 | 1015.0 |
| 20260507101548 | 12 | 144 | 6.4 | 17.7 | 0.00 | 0.00 | 0.00 | 71 | 1015.3 |
| 20260507100047 | 11 | 153 | 3.2 | 14.5 | 0.00 | 0.00 | 0.00 | 72 | 1015.4 |
| 20260507094547 | 11 | 116 | 4.8 | 17.7 | 0.00 | 0.00 | 0.00 | 72 | 1015.6 |
| 20260507093047 | 10 | 98 | 3.2 | 9.7 | 0.00 | 0.00 | 0.00 | 76 | 1015.5 |
| 20260507091549 | 10 | 98 | 3.2 | 14.5 | 0.00 | 0.00 | 0.00 | 79 | 1015.5 |
| 20260507090050 | 9 | 98 | 6.4 | 12.9 | 0.00 | 0.00 | 0.00 | 80 | 1015.4 |
| 20260507084549 | 9 | 98 | 6.4 | 14.5 | 0.00 | 0.00 | 0.00 | 80 | 1015.5 |
| 20260507083050 | 8 | 98 | 4.8 | 16.1 | 0.00 | 0.00 | 0.00 | 81 | 1015.5 |
| 20260507081548 | 8 | 97 | 8.0 | 14.5 | 0.00 | 0.00 | 0.00 | 82 | 1015.3 |
| 20260507080048 | 8 | 97 | 9.7 | 17.7 | 0.00 | 0.00 | 0.00 | 84 | 1015.4 |
| 20260507074548 | 8 | 97 | 6.4 | 12.9 | 0.00 | 0.00 | 0.00 | 85 | 1015.3 |
| 20260507073047 | 7 | 96 | 4.8 | 11.3 | 0.00 | 0.00 | 0.00 | 86 | 1015.1 |
| 20260507071547 | 7 | 96 | 4.8 | 11.3 | 0.00 | 0.00 | 0.00 | 87 | 1015.1 |
| 20260507070047 | 7 | 97 | 8.0 | 17.7 | 0.00 | 0.00 | 0.00 | 88 | 1015.2 |
| 20260507064550 | 7 | 97 | 9.7 | 19.3 | 0.00 | 0.00 | 0.00 | 88 | 1015.2 |
| 20260507063049 | 7 | 96 | 8.0 | 12.9 | 0.00 | 0.00 | 0.00 | 88 | 1015.0 |
| 20260507061549 | 6 | 96 | 4.8 | 11.3 | 0.00 | 0.00 | 0.00 | 89 | 1015.0 |
| 20260507060049 | 6 | 96 | 6.4 | 14.5 | 0.00 | 0.00 | 0.00 | 89 | 1014.9 |
| 20260507054549 | 6 | 97 | 11.3 | 19.3 | 0.00 | 0.00 | 0.00 | 89 | 1014.9 |
| 20260507053049 | 6 | 99 | 12.9 | 22.5 | 0.00 | 0.00 | 0.00 | 89 | 1014.7 |
| 20260507051548 | 6 | 104 | 8.0 | 19.3 | 0.00 | 0.00 | 0.00 | 89 | 1014.8 |
| 20260507050050 | 6 | 104 | 11.3 | 20.9 | 0.00 | 0.00 | 0.00 | 89 | 1014.8 |
| 20260507044550 | 6 | 102 | 9.7 | 17.7 | 0.00 | 0.00 | 0.00 | 89 | 1014.6 |
| 20260507043050 | 6 | 100 | 11.3 | 19.3 | 0.00 | 0.00 | 0.00 | 90 | 1014.5 |
| 20260507041549 | 6 | 100 | 6.4 | 12.9 | 0.00 | 0.00 | 0.00 | 90 | 1014.6 |
| 20260507040049 | 6 | 100 | 8.0 | 14.5 | 0.00 | 0.00 | 0.00 | 90 | 1014.6 |
| 20260507034549 | 6 | 100 | 9.7 | 16.1 | 0.00 | 0.00 | 0.00 | 90 | 1014.4 |
| 20260507033049 | 6 | 100 | 6.4 | 12.9 | 0.00 | 0.00 | 0.00 | 91 | 1014.5 |
| 20260507031549 | 5 | 101 | 11.3 | 17.7 | 0.00 | 0.00 | 0.00 | 91 | 1014.6 |
| 20260507030048 | 5 | 102 | 9.7 | 16.1 | 0.00 | 0.00 | 0.00 | 91 | 1014.7 |
| 20260507024551 | 6 | 100 | 11.3 | 17.7 | 0.00 | 0.00 | 0.00 | 90 | 1014.7 |
| 20260507023051 | 6 | 100 | 11.3 | 17.7 | 0.00 | 0.00 | 0.00 | 89 | 1014.8 |
| 20260507021551 | 6 | 100 | 9.7 | 14.5 | 0.00 | 0.00 | 0.00 | 89 | 1014.9 |
| 20260507020051 | 6 | 99 | 9.7 | 17.7 | 0.00 | 0.00 | 0.00 | 89 | 1014.8 |
| 20260507014550 | 6 | 99 | 4.8 | 12.9 | 0.00 | 0.00 | 0.00 | 88 | 1014.7 |
| 20260507013050 | 6 | 99 | 6.4 | 16.1 | 0.00 | 0.00 | 0.00 | 88 | 1014.8 |
| 20260507011550 | 6 | 100 | 8.0 | 14.5 | 0.00 | 0.00 | 0.00 | 87 | 1014.6 |
| 20260507010049 | 6 | 100 | 9.7 | 16.1 | 0.00 | 0.00 | 0.00 | 87 | 1014.5 |
| 20260507004549 | 6 | 100 | 8.0 | 14.5 | 0.00 | 0.00 | 0.00 | 87 | 1014.5 |
| 20260507003051 | 6 | 98 | 9.7 | 16.1 | 0.00 | 0.00 | 0.00 | 87 | 1014.6 |
| 20260507001551 | 6 | 99 | 9.7 | 17.7 | 0.00 | 0.00 | 0.00 | 87 | 1014.6 |
| 20260507000051 | 6 | 98 | 9.7 | 16.1 | 0.00 | 0.00 | 0.00 | 86 | 1014.6 |
| 20260506234550 | 6 | 97 | 9.7 | 19.3 | 0.00 | 0.00 | 0.00 | 85 | 1014.8 |
| 20260506233050 | 7 | 103 | 12.9 | 20.9 | 0.00 | 0.00 | 0.00 | 85 | 1014.8 |
| 20260506231552 | 7 | 111 | 9.7 | 19.3 | 0.00 | 0.00 | 0.00 | 84 | 1014.9 |
| 20260506230052 | 7 | 117 | 9.7 | 16.1 | 0.00 | 0.00 | 0.00 | 84 | 1014.8 |
| 20260506224547 | 7 | 101 | 8.0 | 16.1 | 0.00 | 0.00 | 0.00 | 83 | 1014.7 |
| 20260506223047 | 7 | 101 | 9.7 | 16.1 | 0.00 | 0.00 | 0.00 | 83 | 1014.7 |
| 20260506221547 | 7 | 100 | 9.7 | 19.3 | 0.00 | 0.00 | 0.00 | 82 | 1014.6 |
| 20260506220047 | 8 | 101 | 8.0 | 16.1 | 0.00 | 0.00 | 0.00 | 81 | 1014.5 |
| 20260506214546 | 8 | 99 | 8.0 | 17.7 | 0.00 | 0.00 | 0.00 | 80 | 1014.5 |
| 20260506213046 | 8 | 97 | 6.4 | 17.7 | 0.00 | 0.00 | 0.00 | 78 | 1014.4 |
| 20260506211548 | 8 | 97 | 6.4 | 14.5 | 0.00 | 0.00 | 0.00 | 77 | 1014.3 |
| 20260506210048 | 8 | 98 | 6.4 | 11.3 | 0.00 | 0.00 | 0.00 | 76 | 1014.3 |
| 20260506204548 | 9 | 98 | 3.2 | 11.3 | 0.00 | 0.00 | 0.00 | 74 | 1014.4 |
| 20260506203047 | 10 | 98 | 0.0 | 11.3 | 0.00 | 0.00 | 0.00 | 73 | 1014.2 |
| 20260506201547 | 10 | 98 | 3.2 | 9.7 | 0.00 | 0.00 | 0.00 | 71 | 1013.8 |
| 20260506200047 | 10 | 98 | 1.6 | 9.7 | 0.00 | 0.00 | 0.00 | 69 | 1013.7 |
| 20260506194547 | 10 | 98 | 3.2 | 14.5 | 0.00 | 0.00 | 0.00 | 68 | 1013.7 |
| 20260506193046 | 11 | 98 | 11.3 | 17.7 | 0.00 | 0.00 | 0.00 | 65 | 1013.4 |
| 20260506191546 | 11 | 98 | 9.7 | 19.3 | 0.00 | 0.00 | 0.00 | 60 | 1013.4 |
| 20260506190046 | 12 | 98 | 8.0 | 19.3 | 0.00 | 0.00 | 0.00 | 58 | 1013.3 |
| 20260506184549 | 12 | 75 | 9.7 | 17.7 | 0.00 | 0.00 | 0.00 | 57 | 1013.3 |
| 20260506183049 | 12 | 63 | 1.6 | 11.3 | 0.00 | 0.00 | 0.00 | 53 | 1013.3 |
| 20260506181548 | 13 | 64 | 1.6 | 8.0 | 0.00 | 0.00 | 0.00 | 52 | 1013.1 |
| 20260506180048 | 13 | 65 | 3.2 | 11.3 | 0.00 | 0.00 | 0.00 | 51 | 1013.1 |
| 20260506174548 | 13 | 67 | 3.2 | 14.5 | 0.00 | 0.00 | 0.00 | 50 | 1013.1 |
| 20260506173048 | 13 | 78 | 4.8 | 14.5 | 0.00 | 0.00 | 0.00 | 50 | 1013.0 |
| 20260506171547 | 13 | 74 | 3.2 | 12.9 | 0.00 | 0.00 | 0.00 | 48 | 1012.9 |
| 20260506170047 | 14 | 65 | 3.2 | 12.9 | 0.00 | 0.00 | 0.00 | 48 | 1012.8 |
| 20260506164547 | 14 | 65 | 3.2 | 12.9 | 0.00 | 0.00 | 0.00 | 47 | 1012.8 |
| 20260506163049 | 13 | 65 | 0.0 | 8.0 | 0.00 | 0.00 | 0.00 | 49 | 1012.8 |
| 20260506161549 | 13 | 62 | 4.8 | 16.1 | 0.00 | 0.00 | 0.00 | 48 | 1012.8 |
| 20260506160048 | 14 | 56 | 4.8 | 17.7 | 0.00 | 0.00 | 0.00 | 48 | 1012.9 |
| 20260506154548 | 15 | 8 | 1.6 | 14.5 | 0.00 | 0.00 | 0.00 | 46 | 1012.7 |